SCP
0 0 0 0 0 0 0 0 0 0 0 0 0 0 0 0 0 0 0 0 0 0 0 0 0 0 0 0 0 0 0 0 0 0 0 0 0 0 0 0 0 0 0 0
0 0 0 0 0 0 0 0 0 0 0 0 0 -0 0 0 0 0 0 0 0 0 0 0 0 0 0 0 0 0 0 0 0 0 0 0 0 0 0 0 0 0 0 0
0 0 0 0 0 0 0 0 0 0 0 0 0 -0 -0 -0 0 0 0 0 0 0 0 0 0 0 0 0 0 0 0 0 0 0 0 0 0 0 0 0 0 0 0 0
0 0 0 0 0 0 0 0 0 0 0 0 0 -0 -0 0 0 0 0 0 0 0 0 0 0 0 0 0 0 0 0 0 0 0 0 0 0 0 0 0 0 0 0 0
0 0 0 0 0 0 0 0 0 0 0 0 0 0 -0 0 0 0 0 0 0 0 0 0 0 0 0 0 0 0 0 0 0 0 0 0 0 0 0 0 0 0 0 0
0 0 0 0 0 0 0 0 0 0 0 0 0 0 -0 0 0 -0 0 0 0 0 0 0 0 0 0 0 0 0 0 0 0 0 0 0 0 0 0 0 0 0 0 0
0 0 0 0 0 0 0 0 0 0 0 0 0 0 0 0 0 0 0 0 0 0 0 0 0 0 0 0 0 0 0 0 0 0 0 0 0 0 0 0 0 0 0 0
0 0 0 0 0 0 0 0 0 0 0 0 0 0 0 0 0 0 0 0 0 0 0 0 0 0 0 0 0 0 0 0 0 0 0 0 0 0 0 0 0 0 0 0
0 0 0 0 0 0 0 0 0 0 0 0 0 0 0 0 0 0 0 0 0 0 0 0 0 0 0 0 0 0 0 0 0 0 0 0 0 0 0 0 0 0 0 0
0 0 0 0 0 0 0 0 0 0 0 0 0 0 0 0 0 0 0 0 0 0 0 0 0 0 0 0 0 0 0 0 0 0 0 0 0 0 0 0 0 0 0 0
0 0 0 0 0 0 0 0 0 0 0 0 0 0 0 0 0 0 0 0 0 0 0 0 0 0 0 0 0 0 0 0 0 0 0 0 0 0 0 0 0 0 0 0
0 0 0 0 0 0 0 0 0 0 0 0 0 0 0 0 0 0 0 0 0 0 0 0 0 0 0 0 0 0 0 0 0 0 0 0 0 0 0 0 0 0 0 0
-0 0 0 0 0 0 0 0 0 0 0 0 0 0 0 0 0 0 0 0 0 0 0 0 0 0 0 0 0 0 0 0 0 0 0 0 0 0 0 0 0 0 0 0
-0 -0 0 0 0 0 0 0 0 0 0 0 0 0 0 0 0 0 0 0 0 0 0 0 0 0 0 0 0 0 0 0 0 0 0 0 0 0 0 0 0 0 0 0
-0 -0 -0 -0 0 0 0 0 0 0 0 0 0 0 0 0 0 0 0 0 0 0 0 0 0 0 0 0 0 0 0 0 0 0 0 0 0 0 0 0 0 0 0 0
-0 -0 0 -0 -0 -0 0 0 0 0 0 0 0 0 0 0 0 0 0 0 0 0 0 0 0 0 0 0 0 0 0 0 0 0 0 0 0 0 0 0 0 0 0 0
-0 -0 -0 -0 -0 -0 -0 -0 0 -0 0 0 0 0 0 0 0 0 0 0 0 0 0 0 0 0 0 0 0 0 0 0 0 0 0 0 0 0 0 0 0 0 0 0
0 0 -0 -0 -0 -0 -0 0 0 -0 0 0 0 0 0 0 0 0 0 0 0 0 0 0 -0 0 0 0 0 0 0 0 0 0 0 0 0 0 0 0 0 0 0 0
0 0 0 0 0 0 0 0 0 0 0 0 0 0 0 0 0 0 0 0 0 0 0 0 0 0 0 0 0 0 0 0 0 0 0 0 0 0 0 0 0 0 0 0
0 0 0 0 0 0 0 0 0 0 0 0 0 0 0 0 0 0 0 0 0 0 0 0 0 0 0 0 0 0 0 0 0 0 0 0 0 0 0 0 0 0 0 0
0 0 0 0 0 0 0 -0 -0 0 0 0 0 0 0 0 0 0 0 0 0 0 0 0 0 0 0 0 0 0 0 0 0 0 0 0 0 0 0 0 0 0 0 0
0 -0 0 0 0 0 0 0 -0 -0 -0 -0 -0 0 0 0 0 0 0 0 0 0 0 0 0 0 0 0 0 0 0 0 0 0 0 0 0 0 0 0 0 0 0 0
0 0 0 0 0 0 -0 0 -0 -0 -0 -0 -0 0 0 -0 0 0 0 0 0 0 0 0 0 0 0 0 0 0 0 0 0 0 0 0 0 0 0 0 0 0 -0 0
0 0 0 0 0 0 0 -0 0 0 0 0 0 0 0 0 0 0 0 0 0 0 0 0 0 0 0 0 0 0 0 0 0 0 0 0 0 0 0 0 0 0 0 0
0 0 0 0 0 0 0 0 0 0 0 0 0 0 0 0 0 0 0 0 0 0 0 0 0 0 0 0 0 0 0 0 0 0 0 0 0 0 0 0 0 0 0 0
0 0 0 0 0 0 0 0 0 0 0 0 0 0 0 0 -0 -0 -0 0 0 0 0 0 0 0 0 0 0 0 0 0 0 0 0 0 0 0 0 0 0 0 0 0
Wind_Speed_500mb
21 19 39 45 51 57 33 30 44 27 7 11 37 54 46 45 57 50 60 67 72 73 83 71 75 65 76 92 97 94 92 97 101 99 96 91 90 86 80 72 66 62 56 50
11 45 46 42 45 48 50 47 54 36 21 12 40 68 50 42 53 62 63 69 76 82 74 78 87 87 87 84 98 102 102 100 108 106 99 95 92 88 81 77 72 68 62 54
44 51 29 37 34 42 50 55 51 45 18 30 28 60 43 40 59 69 66 73 77 80 77 67 67 79 78 94 97 103 108 104 109 110 104 98 94 91 90 87 83 75 62 59
35 57 29 31 43 46 48 38 43 38 17 22 5 32 40 36 29 25 33 52 66 62 57 57 53 67 70 83 95 100 104 109 108 113 114 111 108 109 106 94 82 77 71 63
32 19 35 42 50 40 27 13 30 32 32 21 31 15 31 8 11 25 37 50 43 40 42 47 49 61 66 62 77 94 102 108 110 117 120 115 111 105 102 99 91 83 75 66
42 6 13 13 2 41 29 15 13 8 10 15 36 26 70 30 23 21 14 14 7 2 8 13 24 38 46 57 69 78 97 107 112 116 122 121 115 111 108 102 97 89 79 73
31 40 11 8 12 8 25 20 10 12 11 22 6 26 56 14 22 23 16 12 14 14 17 24 24 24 34 48 61 68 83 101 109 116 120 120 117 115 107 104 98 93 89 84
19 18 41 32 40 22 34 31 14 24 20 28 12 25 21 12 25 27 18 23 28 19 14 11 11 13 18 32 47 56 70 85 97 107 114 116 116 116 108 100 96 95 91 85
10 16 5 3 13 29 16 26 38 12 3 8 16 23 20 28 28 16 13 9 8 13 16 18 15 11 6 17 32 44 55 70 84 92 101 109 114 116 112 100 93 90 89 85
23 30 4 6 5 12 20 11 13 13 16 22 25 33 24 13 10 11 18 20 25 27 29 27 24 20 12 2 16 29 39 51 67 76 86 97 108 110 107 98 94 92 85 81
22 17 9 3 20 30 17 19 12 6 12 12 13 12 12 7 13 18 22 28 31 33 34 34 34 31 24 13 2 14 25 36 48 62 74 83 95 101 102 95 93 89 82 79
21 14 22 38 2 5 20 28 35 13 15 12 11 8 12 19 19 22 23 29 33 36 34 36 38 37 35 29 17 4 12 23 31 42 57 68 78 87 94 94 92 88 82 79
28 11 11 12 4 2 11 28 18 36 7 30 19 18 8 14 17 20 23 26 31 33 36 38 43 45 42 37 30 20 6 11 19 29 41 52 65 75 83 86 88 87 82 80
27 13 19 20 32 27 11 16 36 33 21 28 29 39 18 18 15 13 23 24 29 35 39 39 42 44 43 41 36 29 19 6 13 20 28 39 49 60 68 74 82 84 82 79
18 21 27 39 42 40 38 19 16 31 44 27 39 34 19 16 15 13 17 22 28 35 40 41 41 42 45 43 39 35 27 17 7 11 19 27 36 44 54 63 70 75 77 76
16 22 32 37 40 28 37 31 34 25 38 44 44 47 22 21 22 18 21 25 31 33 36 36 37 40 46 46 42 40 34 26 16 6 9 18 25 33 40 48 57 64 69 75
16 17 21 32 39 37 21 5 18 19 24 32 38 37 7 12 19 20 20 28 31 31 33 36 37 38 42 44 40 39 38 31 22 15 6 5 17 28 35 40 47 55 61 66
23 28 14 16 17 20 10 27 11 23 31 29 22 20 16 20 33 32 32 30 30 28 28 32 34 36 41 40 34 33 32 30 26 22 17 9 7 15 27 39 48 54 59 65
18 19 11 10 15 21 14 20 15 11 13 24 25 27 15 27 41 39 32 29 27 23 25 31 30 33 36 39 37 33 33 32 29 27 26 22 17 13 18 28 39 48 59 64
30 22 15 11 10 8 9 20 33 12 3 17 19 25 28 9 2 12 27 27 27 27 27 29 29 29 32 36 37 36 37 36 35 34 32 29 26 24 21 20 27 37 46 54
15 11 12 19 11 8 14 25 23 5 6 9 19 22 27 15 9 10 21 26 27 26 30 34 36 32 38 38 34 35 37 41 41 37 34 33 30 29 27 26 27 29 35 44
11 13 12 13 12 8 27 20 13 5 5 4 7 12 12 10 11 17 19 21 25 27 27 28 34 36 38 40 41 38 36 34 34 36 37 33 32 32 34 32 27 28 32 36
10 5 10 8 14 33 11 6 8 14 8 5 4 5 7 8 12 15 16 19 26 27 30 32 36 35 35 37 42 43 41 36 32 28 29 32 33 32 31 34 36 32 29 31
8 8 9 14 8 18 3 4 4 3 9 8 5 5 8 10 13 17 17 18 22 28 35 37 41 41 37 38 40 41 43 40 38 35 31 30 31 31 30 28 31 36 38 34
21 8 12 14 24 10 6 5 4 3 2 4 7 7 7 11 16 20 24 26 27 32 35 40 42 44 46 45 45 44 47 45 44 43 40 37 36 35 35 34 32 28 29 36
24 17 11 18 4 7 12 8 12 12 13 11 12 14 14 17 19 20 25 30 36 37 41 45 47 50 48 50 53 52 50 49 49 52 50 46 43 42 41 41 40 29 26 25
Wind_Direction_500mb
194 213 219 214 219 238 262 263 262 268 253 249 254 265 263 267 268 260 257 258 259 257 257 255 250 241 235 232 232 231 229 225 221 217 215 215 214 213 213 213 214 213 214 213
173 231 228 230 228 236 241 254 259 264 252 259 277 276 274 261 261 255 252 252 253 256 255 252 254 243 233 232 230 229 229 227 222 220 218 218 216 215 215 213 214 213 213 213
214 238 208 204 214 223 235 239 250 253 277 256 283 281 277 252 242 254 252 249 252 250 252 249 244 244 237 230 229 228 227 225 223 220 217 215 217 214 212 212 213 212 212 214
234 249 198 195 222 208 239 233 242 248 242 259 237 283 280 277 241 234 244 241 241 246 250 251 239 241 240 236 233 230 228 225 222 219 217 217 217 214 216 216 214 212 213 214
221 204 200 217 223 187 236 175 212 226 233 275 227 258 270 98 255 257 248 246 252 250 251 254 249 250 250 242 233 230 227 226 223 220 219 218 218 220 219 214 212 212 213 213
250 68 219 225 93 188 135 116 101 130 198 240 237 217 278 267 278 263 284 251 199 167 244 255 262 252 236 233 231 230 226 224 223 220 220 219 218 219 219 217 213 211 212 214
236 228 195 178 134 156 192 162 188 210 201 242 182 200 256 319 289 261 271 247 281 288 286 282 278 265 238 226 222 224 224 223 223 221 221 221 220 221 223 221 215 211 211 213
223 234 199 186 216 182 197 189 206 229 221 242 165 225 246 255 265 292 297 280 282 293 324 336 312 280 249 231 223 224 222 221 222 222 222 222 221 222 225 224 218 217 217 217
253 248 196 203 210 189 175 213 234 282 14 273 218 253 269 249 263 311 355 7 34 51 34 32 26 14 292 235 224 223 220 223 226 226 223 222 221 222 223 224 221 221 221 220
282 280 157 145 183 239 214 164 185 218 224 228 245 259 256 236 220 53 50 50 56 52 44 41 41 41 43 229 227 221 223 223 227 226 225 224 222 222 224 225 221 221 222 221
285 242 261 170 211 197 180 202 221 256 231 236 254 239 4 39 87 84 67 61 59 56 46 43 47 48 54 58 151 221 226 223 226 224 224 223 223 223 224 225 223 222 222 220
358 296 261 235 129 295 256 230 203 206 197 233 303 264 60 88 85 87 76 65 56 56 52 47 49 52 57 59 62 103 217 231 233 230 226 225 225 224 224 224 222 221 222 223
1 316 297 230 195 30 227 228 249 243 345 224 220 242 124 116 93 76 73 59 55 50 47 47 50 48 47 53 56 60 105 211 227 227 226 226 226 226 225 224 222 221 223 224
339 295 323 310 320 329 269 224 215 214 228 224 222 235 173 171 129 82 70 58 50 45 40 38 41 42 41 42 48 55 58 95 198 214 222 225 227 228 227 227 224 223 225 226
328 298 306 302 296 298 282 259 251 228 224 221 231 242 206 153 117 75 59 62 55 47 41 34 31 30 35 38 42 44 44 52 92 189 212 223 224 227 229 230 229 228 228 230
300 288 300 289 307 313 315 298 239 236 251 258 249 246 81 108 110 76 57 54 49 44 42 37 32 28 28 34 35 32 34 37 48 91 186 210 217 221 225 227 228 229 230 230
287 284 295 285 298 312 285 331 327 257 229 250 246 256 203 108 69 51 51 60 54 37 32 31 30 25 23 28 33 33 30 30 29 32 46 215 217 217 215 220 222 226 229 231
271 283 251 268 283 260 66 23 26 75 35 12 23 19 29 103 96 67 50 49 43 33 29 27 29 29 24 24 29 39 36 35 33 29 18 354 285 240 230 225 222 223 228 231
329 291 311 285 306 304 22 13 341 338 45 19 20 14 1 131 103 61 44 46 45 38 26 25 25 27 25 22 24 27 30 33 32 31 29 16 350 314 266 244 240 238 234 233
347 329 293 278 290 299 37 327 328 266 111 25 26 24 12 203 91 51 19 27 31 28 28 22 27 31 27 25 22 18 21 24 27 25 20 15 7 351 326 290 260 249 247 245
313 313 329 320 305 281 2 321 317 311 52 42 40 28 31 49 43 21 19 12 10 12 13 11 16 16 15 16 19 14 10 12 13 16 12 10 4 353 348 326 296 271 260 254
291 308 329 318 306 288 358 336 359 330 120 120 75 48 33 36 18 15 11 1 353 356 359 0 359 360 0 1 4 6 9 10 5 357 356 0 1 360 354 350 327 292 275 263
271 286 281 274 282 312 359 13 336 334 197 163 130 36 5 351 349 343 344 336 336 337 341 345 346 347 348 351 353 351 351 354 355 351 342 340 345 353 354 354 347 334 305 280
246 210 242 303 256 298 238 66 14 32 64 42 26 343 340 334 331 326 326 325 324 325 329 331 334 333 335 335 339 340 336 336 339 341 339 333 328 324 332 337 345 349 335 307
263 262 253 257 280 272 189 152 185 119 228 317 322 316 314 298 298 301 304 307 309 312 315 318 321 320 320 322 324 327 325 325 324 326 327 329 327 324 316 314 324 330 332 319
251 243 233 267 198 251 282 257 259 236 239 260 294 300 292 293 286 291 293 297 301 302 306 308 308 306 306 307 311 314 316 314 312 311 314 316 317 318 318 315 305 303 310 310
Wind_Speed_850mb
21 19 39 45 51 57 33 30 44 27 7 11 37 54 46 45 57 50 60 67 72 73 83 71 75 65 76 92 97 94 92 97 101 99 96 91 90 86 80 72 66 62 56 50
11 45 46 42 45 48 50 47 54 36 21 12 40 68 50 42 53 62 63 69 76 82 74 78 87 87 87 84 98 102 102 100 108 106 99 95 92 88 81 77 72 68 62 54
44 51 29 37 34 42 50 55 51 45 18 30 28 60 43 40 59 69 66 73 77 80 77 67 67 79 78 94 97 103 108 104 109 110 104 98 94 91 90 87 83 75 62 59
35 57 29 31 43 46 48 38 43 38 17 22 5 32 40 36 29 25 33 52 66 62 57 57 53 67 70 83 95 100 104 109 108 113 114 111 108 109 106 94 82 77 71 63
32 19 35 42 50 40 27 13 30 32 32 21 31 15 31 8 11 25 37 50 43 40 42 47 49 61 66 62 77 94 102 108 110 117 120 115 111 105 102 99 91 83 75 66
42 6 13 13 2 41 29 15 13 8 10 15 36 26 70 30 23 21 14 14 7 2 8 13 24 38 46 57 69 78 97 107 112 116 122 121 115 111 108 102 97 89 79 73
31 40 11 8 12 8 25 20 10 12 11 22 6 26 56 14 22 23 16 12 14 14 17 24 24 24 34 48 61 68 83 101 109 116 120 120 117 115 107 104 98 93 89 84
19 18 41 32 40 22 34 31 14 24 20 28 12 25 21 12 25 27 18 23 28 19 14 11 11 13 18 32 47 56 70 85 97 107 114 116 116 116 108 100 96 95 91 85
10 16 5 3 13 29 16 26 38 12 3 8 16 23 20 28 28 16 13 9 8 13 16 18 15 11 6 17 32 44 55 70 84 92 101 109 114 116 112 100 93 90 89 85
23 30 4 6 5 12 20 11 13 13 16 22 25 33 24 13 10 11 18 20 25 27 29 27 24 20 12 2 16 29 39 51 67 76 86 97 108 110 107 98 94 92 85 81
22 17 9 3 20 30 17 19 12 6 12 12 13 12 12 7 13 18 22 28 31 33 34 34 34 31 24 13 2 14 25 36 48 62 74 83 95 101 102 95 93 89 82 79
21 14 22 38 2 5 20 28 35 13 15 12 11 8 12 19 19 22 23 29 33 36 34 36 38 37 35 29 17 4 12 23 31 42 57 68 78 87 94 94 92 88 82 79
28 11 11 12 4 2 11 28 18 36 7 30 19 18 8 14 17 20 23 26 31 33 36 38 43 45 42 37 30 20 6 11 19 29 41 52 65 75 83 86 88 87 82 80
27 13 19 20 32 27 11 16 36 33 21 28 29 39 18 18 15 13 23 24 29 35 39 39 42 44 43 41 36 29 19 6 13 20 28 39 49 60 68 74 82 84 82 79
18 21 27 39 42 40 38 19 16 31 44 27 39 34 19 16 15 13 17 22 28 35 40 41 41 42 45 43 39 35 27 17 7 11 19 27 36 44 54 63 70 75 77 76
16 22 32 37 40 28 37 31 34 25 38 44 44 47 22 21 22 18 21 25 31 33 36 36 37 40 46 46 42 40 34 26 16 6 9 18 25 33 40 48 57 64 69 75
16 17 21 32 39 37 21 5 18 19 24 32 38 37 7 12 19 20 20 28 31 31 33 36 37 38 42 44 40 39 38 31 22 15 6 5 17 28 35 40 47 55 61 66
23 28 14 16 17 20 10 27 11 23 31 29 22 20 16 20 33 32 32 30 30 28 28 32 34 36 41 40 34 33 32 30 26 22 17 9 7 15 27 39 48 54 59 65
18 19 11 10 15 21 14 20 15 11 13 24 25 27 15 27 41 39 32 29 27 23 25 31 30 33 36 39 37 33 33 32 29 27 26 22 17 13 18 28 39 48 59 64
30 22 15 11 10 8 9 20 33 12 3 17 19 25 28 9 2 12 27 27 27 27 27 29 29 29 32 36 37 36 37 36 35 34 32 29 26 24 21 20 27 37 46 54
15 11 12 19 11 8 14 25 23 5 6 9 19 22 27 15 9 10 21 26 27 26 30 34 36 32 38 38 34 35 37 41 41 37 34 33 30 29 27 26 27 29 35 44
11 13 12 13 12 8 27 20 13 5 5 4 7 12 12 10 11 17 19 21 25 27 27 28 34 36 38 40 41 38 36 34 34 36 37 33 32 32 34 32 27 28 32 36
10 5 10 8 14 33 11 6 8 14 8 5 4 5 7 8 12 15 16 19 26 27 30 32 36 35 35 37 42 43 41 36 32 28 29 32 33 32 31 34 36 32 29 31
8 8 9 14 8 18 3 4 4 3 9 8 5 5 8 10 13 17 17 18 22 28 35 37 41 41 37 38 40 41 43 40 38 35 31 30 31 31 30 28 31 36 38 34
21 8 12 14 24 10 6 5 4 3 2 4 7 7 7 11 16 20 24 26 27 32 35 40 42 44 46 45 45 44 47 45 44 43 40 37 36 35 35 34 32 28 29 36
24 17 11 18 4 7 12 8 12 12 13 11 12 14 14 17 19 20 25 30 36 37 41 45 47 50 48 50 53 52 50 49 49 52 50 46 43 42 41 41 40 29 26 25
Wind_Direction_850mb
194 213 219 214 219 238 262 263 262 268 253 249 254 265 263 267 268 260 257 258 259 257 257 255 250 241 235 232 232 231 229 225 221 217 215 215 214 213 213 213 214 213 214 213
173 231 228 230 228 236 241 254 259 264 252 259 277 276 274 261 261 255 252 252 253 256 255 252 254 243 233 232 230 229 229 227 222 220 218 218 216 215 215 213 214 213 213 213
214 238 208 204 214 223 235 239 250 253 277 256 283 281 277 252 242 254 252 249 252 250 252 249 244 244 237 230 229 228 227 225 223 220 217 215 217 214 212 212 213 212 212 214
234 249 198 195 222 208 239 233 242 248 242 259 237 283 280 277 241 234 244 241 241 246 250 251 239 241 240 236 233 230 228 225 222 219 217 217 217 214 216 216 214 212 213 214
221 204 200 217 223 187 236 175 212 226 233 275 227 258 270 98 255 257 248 246 252 250 251 254 249 250 250 242 233 230 227 226 223 220 219 218 218 220 219 214 212 212 213 213
250 68 219 225 93 188 135 116 101 130 198 240 237 217 278 267 278 263 284 251 199 167 244 255 262 252 236 233 231 230 226 224 223 220 220 219 218 219 219 217 213 211 212 214
236 228 195 178 134 156 192 162 188 210 201 242 182 200 256 319 289 261 271 247 281 288 286 282 278 265 238 226 222 224 224 223 223 221 221 221 220 221 223 221 215 211 211 213
223 234 199 186 216 182 197 189 206 229 221 242 165 225 246 255 265 292 297 280 282 293 324 336 312 280 249 231 223 224 222 221 222 222 222 222 221 222 225 224 218 217 217 217
253 248 196 203 210 189 175 213 234 282 14 273 218 253 269 249 263 311 355 7 34 51 34 32 26 14 292 235 224 223 220 223 226 226 223 222 221 222 223 224 221 221 221 220
282 280 157 145 183 239 214 164 185 218 224 228 245 259 256 236 220 53 50 50 56 52 44 41 41 41 43 229 227 221 223 223 227 226 225 224 222 222 224 225 221 221 222 221
285 242 261 170 211 197 180 202 221 256 231 236 254 239 4 39 87 84 67 61 59 56 46 43 47 48 54 58 151 221 226 223 226 224 224 223 223 223 224 225 223 222 222 220
358 296 261 235 129 295 256 230 203 206 197 233 303 264 60 88 85 87 76 65 56 56 52 47 49 52 57 59 62 103 217 231 233 230 226 225 225 224 224 224 222 221 222 223
1 316 297 230 195 30 227 228 249 243 345 224 220 242 124 116 93 76 73 59 55 50 47 47 50 48 47 53 56 60 105 211 227 227 226 226 226 226 225 224 222 221 223 224
339 295 323 310 320 329 269 224 215 214 228 224 222 235 173 171 129 82 70 58 50 45 40 38 41 42 41 42 48 55 58 95 198 214 222 225 227 228 227 227 224 223 225 226
328 298 306 302 296 298 282 259 251 228 224 221 231 242 206 153 117 75 59 62 55 47 41 34 31 30 35 38 42 44 44 52 92 189 212 223 224 227 229 230 229 228 228 230
300 288 300 289 307 313 315 298 239 236 251 258 249 246 81 108 110 76 57 54 49 44 42 37 32 28 28 34 35 32 34 37 48 91 186 210 217 221 225 227 228 229 230 230
287 284 295 285 298 312 285 331 327 257 229 250 246 256 203 108 69 51 51 60 54 37 32 31 30 25 23 28 33 33 30 30 29 32 46 215 217 217 215 220 222 226 229 231
271 283 251 268 283 260 66 23 26 75 35 12 23 19 29 103 96 67 50 49 43 33 29 27 29 29 24 24 29 39 36 35 33 29 18 354 285 240 230 225 222 223 228 231
329 291 311 285 306 304 22 13 341 338 45 19 20 14 1 131 103 61 44 46 45 38 26 25 25 27 25 22 24 27 30 33 32 31 29 16 350 314 266 244 240 238 234 233
347 329 293 278 290 299 37 327 328 266 111 25 26 24 12 203 91 51 19 27 31 28 28 22 27 31 27 25 22 18 21 24 27 25 20 15 7 351 326 290 260 249 247 245
313 313 329 320 305 281 2 321 317 311 52 42 40 28 31 49 43 21 19 12 10 12 13 11 16 16 15 16 19 14 10 12 13 16 12 10 4 353 348 326 296 271 260 254
291 308 329 318 306 288 358 336 359 330 120 120 75 48 33 36 18 15 11 1 353 356 359 0 359 360 0 1 4 6 9 10 5 357 356 0 1 360 354 350 327 292 275 263
271 286 281 274 282 312 359 13 336 334 197 163 130 36 5 351 349 343 344 336 336 337 341 345 346 347 348 351 353 351 351 354 355 351 342 340 345 353 354 354 347 334 305 280
246 210 242 303 256 298 238 66 14 32 64 42 26 343 340 334 331 326 326 325 324 325 329 331 334 333 335 335 339 340 336 336 339 341 339 333 328 324 332 337 345 349 335 307
263 262 253 257 280 272 189 152 185 119 228 317 322 316 314 298 298 301 304 307 309 312 315 318 321 320 320 322 324 327 325 325 324 326 327 329 327 324 316 314 324 330 332 319
251 243 233 267 198 251 282 257 259 236 239 260 294 300 292 293 286 291 293 297 301 302 306 308 308 306 306 307 311 314 316 314 312 311 314 316 317 318 318 315 305 303 310 310